Regional Weather Roundup
Issued by NWS

Home | Current Version | Previous Version | Text Only | Print | Product List | Glossary On
Versions: 1 2 3 4 5 6 7 8 9 10 11 12 13 14 15 16 17 18 19 20 21 22 23 24 25 26 27 28 29 30 31 32 33 34 35 36 37 38 39 40 41 42 43 44 45 46 47 48 49 50
000
ASUS43 KFSD 031310
RWRSD

WEATHER ROUNDUP FOR SOUTH DAKOTA
NATIONAL WEATHER SERVICE SIOUX FALLS SD
700 AM CST TUE MAR 03 2015

NOTE: "FAIR" INDICATES FEW OR NO CLOUDS BELOW 12,000 FEET WITH NO
SIGNIFICANT WEATHER AND/OR OBSTRUCTIONS TO VISIBILITY.


SDZ001>005-009-010-012>017-031400-
NORTHWEST AND NORTH CENTRAL SOUTH DAKOTA

CITY           SKY/WX    TMP DP  RH WIND       PRES   REMARKS
BUFFALO          N/A     11   3  70 NW21      29.91R WCI  -8
FAITH            N/A     11   1  64 N25G35    29.94R WCI -10
MOBRIDGE       CLOUDY    14   3  61 N29G38    29.88R WCI  -7
$$

SDZ012>016-024>037-041>051-057-063-072>074-031400-
SOUTHWEST AND SOUTH CENTRAL SOUTH DAKOTA

CITY           SKY/WX    TMP DP  RH WIND       PRES   REMARKS
RAPID CTY ARPT LGT SNOW  13   8  81 NW41G47   29.94R VSB 3/4 WCI -11
PIERRE         LGT SNOW  16  12  84 N26G39    29.89R VSB 3/4 WCI  -3
CUSTER         CLOUDY     8  -1  66 N18G28    29.73R WCI -11
ELLSWORTH AFB  LGT SNOW  12   9  85 NW29G38   29.93  BLWGSNOWWCI  -9
PHILIP         LGT SNOW  17  12  80 NW29G37   29.94R WCI  -2
PINE RIDGE     LGT SNOW  15   9  76 N21G30    29.92R WCI  -2
SPEARFISH      LGT SNOW  10   7  85 W10       29.97S WCI  -3
WINNER         LGT SNOW  19  13  77 N26G33    29.86R VSB 3/4 WCI   1
$$

SDZ004>011-016>023-039-040-031400-
NORTHEAST SOUTH DAKOTA

CITY           SKY/WX    TMP DP  RH WIND       PRES   REMARKS
ABERDEEN       HAZE      17  12  80 N28G35    29.84R VSB 1   WCI  -2
WATERTOWN      LGT SNOW  21  18  88 N24       29.69R VSB 3/4 WCI   4
SISSETON         N/A     20  19  96 N22       29.73  WCI   3
$$

SDZ017-020-022-023-036>040-048>070-031400-
SOUTHEAST SOUTH DAKOTA

CITY           SKY/WX    TMP DP  RH WIND       PRES   REMARKS
SIOUX FALLS    LGT SNOW  24  23  96 CALM      29.66F VSB 3/4
HURON          LGT SNOW  20  17  88 N35G45    29.76R VSB 1   WCI   0
CHAMBERLAIN    LGT SNOW  19  16  89 N26G39    29.81R VSB 1   WCI   0
MITCHELL         N/A     26  24  92 W9        29.73R FOG     WCI  17
YANKTON        MOCLDY    27  19  74 W6        29.71R WCI  20
$$

ABBREVIATIONS USED IN REMARKS
   TC - TEMPERATURE IN CELSIUS
  WCI - WIND CHILL INDEX
   HX - HEAT INDEX
  VSB - VISIBILITY



USA.gov is the U.S. government's official web portal to all federal, state and local government web resources and services.